| time (UTC) | temp C | wind direction | speed KPH | gust KPH | rain 1hr cm | rain 24hr cm | rain mn cm | humidity % | barometer mb |
| 20260503174646 | 17 | 141 | 1.6 | 3.2 | 0.00 | 0.00 | 0.00 | 37 | 1019.1 |
| 20260503174144 | 18 | 41 | 4.8 | 11.3 | 0.00 | 0.00 | 0.00 | 37 | 1019.1 |
| 20260503173638 | 18 | 331 | 6.4 | 11.3 | 0.00 | 0.00 | 0.00 | 37 | 1019.2 |
| 20260503173135 | 17 | 171 | 6.4 | 11.3 | 0.00 | 0.00 | 0.00 | 36 | 1019.4 |
| 20260503172632 | 17 | 229 | 1.6 | 8.0 | 0.00 | 0.00 | 0.00 | 37 | 1019.3 |
| 20260503172130 | 17 | 228 | 9.7 | 12.9 | 0.00 | 0.00 | 0.00 | 37 | 1019.6 |
| 20260503171626 | 17 | 208 | 6.4 | 11.3 | 0.00 | 0.00 | 0.00 | 36 | 1019.6 |
| 20260503171123 | 17 | 307 | 6.4 | 12.9 | 0.00 | 0.00 | 0.00 | 35 | 1019.8 |
| 20260503170621 | 17 | 294 | 0.0 | 9.7 | 0.00 | 0.00 | 0.00 | 38 | 1019.8 |
| 20260503170117 | 17 | 228 | 1.6 | 3.2 | 0.00 | 0.00 | 0.00 | 41 | 1019.9 |
| 20260503151012 | 14 | 135 | 4.8 | 9.7 | 0.00 | 0.00 | 0.00 | 48 | 1020.8 |
| 20260503150509 | 14 | 314 | 3.2 | 9.7 | 0.00 | 0.00 | 0.00 | 49 | 1020.9 |
| 20260503131402 | 11 | 356 | 8.0 | 11.3 | 0.00 | 0.00 | 0.00 | 60 | 1020.6 |
| 20260503130859 | 11 | 352 | 6.4 | 12.9 | 0.00 | 0.00 | 0.00 | 61 | 1020.5 |
| 20260503130356 | 11 | 356 | 6.4 | 11.3 | 0.00 | 0.00 | 0.00 | 62 | 1020.5 |
| 20260503110755 | 1 | 206 | 0.0 | 1.6 | 0.00 | 0.00 | 0.00 | 89 | 1019.9 |
| 20260503110252 | 1 | 225 | 1.6 | 1.6 | 0.00 | 0.00 | 0.00 | 89 | 1020.0 |
| 20260503100219 | 1 | 201 | 0.0 | 0.0 | 0.00 | 0.00 | 0.00 | 88 | 1018.3 |
| 20260503090138 | 2 | 179 | 0.0 | 1.6 | 0.00 | 0.00 | 0.00 | 88 | 1018.0 |
| 20260503081608 | 2 | 151 | 0.0 | 1.6 | 0.00 | 0.00 | 0.00 | 87 | 1017.7 |
| 20260503081105 | 2 | 214 | 0.0 | 1.6 | 0.00 | 0.00 | 0.00 | 87 | 1017.6 |
| 20260503080601 | 2 | 186 | 0.0 | 0.0 | 0.00 | 0.00 | 0.00 | 87 | 1017.6 |
| 20260503072540 | 3 | 201 | 1.6 | 1.6 | 0.00 | 0.00 | 0.00 | 87 | 1017.4 |
| 20260503072037 | 2 | 184 | 0.0 | 0.0 | 0.00 | 0.00 | 0.00 | 87 | 1017.4 |
| 20260503071534 | 3 | 185 | 0.0 | 1.6 | 0.00 | 0.00 | 0.00 | 87 | 1017.3 |
| 20260503071030 | 3 | 173 | 0.0 | 1.6 | 0.00 | 0.00 | 0.00 | 87 | 1017.2 |
| 20260503070527 | 2 | 172 | 0.0 | 0.0 | 0.00 | 0.00 | 0.00 | 86 | 1017.1 |
| 20260503054945 | 3 | 302 | 1.6 | 1.6 | 0.00 | 0.00 | 0.00 | 82 | 1017.2 |
| 20260503054441 | 3 | 211 | 0.0 | 1.6 | 0.00 | 0.00 | 0.00 | 81 | 1016.9 |
| 20260503053939 | 3 | 231 | 1.6 | 1.6 | 0.00 | 0.00 | 0.00 | 81 | 1016.8 |
| 20260503053437 | 3 | 158 | 0.0 | 0.0 | 0.00 | 0.00 | 0.00 | 81 | 1017.1 |
| 20260503052933 | 4 | 176 | 0.0 | 0.0 | 0.00 | 0.00 | 0.00 | 80 | 1016.9 |
| 20260503052431 | 4 | 174 | 0.0 | 0.0 | 0.00 | 0.00 | 0.00 | 80 | 1016.9 |
| 20260503051927 | 5 | 180 | 0.0 | 0.0 | 0.00 | 0.00 | 0.00 | 80 | 1017.1 |
| 20260503051423 | 5 | 172 | 0.0 | 1.6 | 0.00 | 0.00 | 0.00 | 80 | 1016.9 |
| 20260503050920 | 5 | 193 | 0.0 | 1.6 | 0.00 | 0.00 | 0.00 | 79 | 1017.0 |
| 20260503050416 | 5 | 192 | 0.0 | 0.0 | 0.00 | 0.00 | 0.00 | 78 | 1017.0 |
| 20260503045914 | 5 | 134 | 1.6 | 1.6 | 0.00 | 0.00 | 0.00 | 77 | 1016.8 |
| 20260503045411 | 5 | 227 | 1.6 | 1.6 | 0.00 | 0.00 | 0.00 | 77 | 1016.8 |
| 20260503044908 | 5 | 198 | 0.0 | 1.6 | 0.00 | 0.00 | 0.00 | 75 | 1016.8 |
| 20260503044405 | 5 | 189 | 0.0 | 0.0 | 0.00 | 0.00 | 0.00 | 74 | 1016.7 |
| 20260503043902 | 5 | 168 | 0.0 | 0.0 | 0.00 | 0.00 | 0.00 | 73 | 1016.6 |
| 20260503043359 | 6 | 222 | 1.6 | 1.6 | 0.00 | 0.00 | 0.00 | 72 | 1016.6 |
| 20260503042855 | 6 | 186 | 0.0 | 0.0 | 0.00 | 0.00 | 0.00 | 72 | 1016.6 |
| 20260503042352 | 6 | 230 | 1.6 | 1.6 | 0.00 | 0.00 | 0.00 | 71 | 1016.5 |
| 20260503041848 | 6 | 179 | 0.0 | 0.0 | 0.00 | 0.00 | 0.00 | 70 | 1016.3 |
| 20260503041345 | 7 | 97 | 1.6 | 1.6 | 0.00 | 0.00 | 0.00 | 69 | 1016.2 |
| 20260503040843 | 7 | 338 | 1.6 | 4.8 | 0.00 | 0.00 | 0.00 | 68 | 1016.2 |
| 20260503040340 | 7 | 215 | 1.6 | 1.6 | 0.00 | 0.00 | 0.00 | 67 | 1016.2 |
| 20260503035837 | 7 | 170 | 0.0 | 1.6 | 0.00 | 0.00 | 0.00 | 67 | 1016.1 |
| 20260503035334 | 7 | 153 | 1.6 | 1.6 | 0.00 | 0.00 | 0.00 | 68 | 1016.1 |
| 20260503034831 | 7 | 141 | 1.6 | 3.2 | 0.00 | 0.00 | 0.00 | 67 | 1016.2 |
| 20260503034329 | 7 | 179 | 0.0 | 0.0 | 0.00 | 0.00 | 0.00 | 65 | 1016.0 |
| 20260503033826 | 7 | 189 | 1.6 | 3.2 | 0.00 | 0.00 | 0.00 | 65 | 1016.0 |
| 20260503033323 | 7 | 174 | 0.0 | 0.0 | 0.00 | 0.00 | 0.00 | 64 | 1016.0 |
| 20260503032821 | 8 | 162 | 3.2 | 3.2 | 0.00 | 0.00 | 0.00 | 64 | 1016.0 |
| 20260503032320 | 7 | 206 | 1.6 | 1.6 | 0.00 | 0.00 | 0.00 | 66 | 1015.9 |
| 20260503031817 | 7 | 164 | 0.0 | 1.6 | 0.00 | 0.00 | 0.00 | 64 | 1015.9 |
| 20260503031315 | 7 | 141 | 1.6 | 3.2 | 0.00 | 0.00 | 0.00 | 65 | 1015.9 |
| 20260503030811 | 7 | 181 | 0.0 | 0.0 | 0.00 | 0.00 | 0.00 | 66 | 1015.9 |
| 20260503030307 | 7 | 171 | 0.0 | 0.0 | 0.00 | 0.00 | 0.00 | 63 | 1015.8 |
| 20260503025804 | 8 | 163 | 0.0 | 0.0 | 0.00 | 0.00 | 0.00 | 63 | 1015.8 |
| 20260503025304 | 8 | 181 | 0.0 | 0.0 | 0.00 | 0.00 | 0.00 | 60 | 1015.8 |
| 20260503024758 | 9 | 211 | 1.6 | 1.6 | 0.00 | 0.00 | 0.00 | 61 | 1015.8 |
| 20260503024255 | 10 | 200 | 1.6 | 1.6 | 0.00 | 0.00 | 0.00 | 59 | 1015.8 |
| 20260503023752 | 10 | 213 | 1.6 | 1.6 | 0.00 | 0.00 | 0.00 | 56 | 1015.5 |
| 20260503023249 | 10 | 186 | 0.0 | 0.0 | 0.00 | 0.00 | 0.00 | 54 | 1015.7 |
| 20260503022745 | 11 | 208 | 1.6 | 1.6 | 0.00 | 0.00 | 0.00 | 53 | 1015.6 |
| 20260503022240 | 11 | 271 | 1.6 | 1.6 | 0.00 | 0.00 | 0.00 | 49 | 1015.6 |
| 20260503021737 | 12 | 26 | 0.0 | 4.8 | 0.00 | 0.00 | 0.00 | 47 | 1015.2 |
| 20260503021232 | 12 | 24 | 8.0 | 11.3 | 0.00 | 0.00 | 0.00 | 47 | 1015.2 |
| 20260503020731 | 12 | 356 | 6.4 | 9.7 | 0.00 | 0.00 | 0.00 | 47 | 1015.2 |
| 20260503020228 | 12 | 24 | 6.4 | 12.9 | 0.00 | 0.00 | 0.00 | 47 | 1015.2 |
| 20260503015724 | 12 | 342 | 8.0 | 11.3 | 0.00 | 0.00 | 0.00 | 46 | 1015.1 |
| 20260503015221 | 12 | 350 | 8.0 | 12.9 | 0.00 | 0.00 | 0.00 | 46 | 1014.9 |
| 20260503014717 | 12 | 0 | 8.0 | 16.1 | 0.00 | 0.00 | 0.00 | 46 | 1014.9 |
| 20260503014216 | 12 | 10 | 3.2 | 16.1 | 0.00 | 0.00 | 0.00 | 46 | 1014.8 |
| 20260503013712 | 13 | 2 | 12.9 | 17.7 | 0.00 | 0.00 | 0.00 | 45 | 1014.9 |
| 20260503013210 | 12 | 341 | 12.9 | 24.1 | 0.00 | 0.00 | 0.00 | 46 | 1014.7 |
| 20260503012707 | 12 | 337 | 6.4 | 9.7 | 0.00 | 0.00 | 0.00 | 46 | 1014.7 |
| 20260503012204 | 13 | 355 | 11.3 | 14.5 | 0.00 | 0.00 | 0.00 | 45 | 1014.5 |
| 20260503011701 | 13 | 1 | 8.0 | 12.9 | 0.00 | 0.00 | 0.00 | 45 | 1014.6 |
| 20260503011158 | 13 | 358 | 6.4 | 16.1 | 0.00 | 0.00 | 0.00 | 45 | 1014.5 |
| 20260503010654 | 13 | 7 | 12.9 | 16.1 | 0.00 | 0.00 | 0.00 | 45 | 1014.3 |
| 20260503010151 | 13 | 313 | 11.3 | 29.0 | 0.00 | 0.00 | 0.00 | 44 | 1014.2 |
| 20260503005648 | 13 | 354 | 6.4 | 11.3 | 0.00 | 0.00 | 0.00 | 44 | 1014.3 |
| 20260503005145 | 13 | 345 | 8.0 | 9.7 | 0.00 | 0.00 | 0.00 | 45 | 1013.8 |
| 20260503004641 | 14 | 335 | 8.0 | 12.9 | 0.00 | 0.00 | 0.00 | 45 | 1014.1 |
| 20260503004140 | 14 | 359 | 3.2 | 9.7 | 0.00 | 0.00 | 0.00 | 44 | 1014.0 |
| 20260503003637 | 14 | 3 | 8.0 | 12.9 | 0.00 | 0.00 | 0.00 | 44 | 1013.9 |
| 20260503003134 | 14 | 10 | 4.8 | 11.3 | 0.00 | 0.00 | 0.00 | 43 | 1013.7 |
| 20260503002630 | 14 | 346 | 8.0 | 14.5 | 0.00 | 0.00 | 0.00 | 42 | 1013.7 |
| 20260503002127 | 15 | 357 | 8.0 | 12.9 | 0.00 | 0.00 | 0.00 | 42 | 1013.6 |
| 20260503001623 | 15 | 1 | 9.7 | 12.9 | 0.00 | 0.00 | 0.00 | 42 | 1013.4 |
| 20260503001120 | 15 | 10 | 9.7 | 12.9 | 0.00 | 0.00 | 0.00 | 42 | 1013.4 |
| 20260503000618 | 15 | 6 | 8.0 | 16.1 | 0.00 | 0.00 | 0.00 | 41 | 1013.1 |
| 20260503000115 | 15 | 4 | 11.3 | 16.1 | 0.00 | 0.00 | 0.00 | 41 | 1013.1 |
| 20260502235611 | 15 | 354 | 12.9 | 16.1 | 0.00 | 0.00 | 0.00 | 41 | 1012.9 |
| 20260502235110 | 15 | 330 | 12.9 | 22.5 | 0.00 | 0.00 | 0.00 | 41 | 1012.9 |
| 20260502234605 | 15 | 353 | 6.4 | 16.1 | 0.00 | 0.00 | 0.00 | 41 | 1012.8 |
| 20260502234103 | 15 | 323 | 4.8 | 12.9 | 0.00 | 0.00 | 0.00 | 41 | 1012.7 |
| 20260502233603 | 15 | 345 | 11.3 | 16.1 | 0.00 | 0.00 | 0.00 | 40 | 1012.7 |
| 20260502233101 | 15 | 3 | 17.7 | 22.5 | 0.00 | 0.00 | 0.00 | 40 | 1012.8 |
| 20260502232556 | 15 | 13 | 11.3 | 20.9 | 0.00 | 0.00 | 0.00 | 40 | 1012.4 |
| 20260502232054 | 15 | 19 | 14.5 | 22.5 | 0.00 | 0.00 | 0.00 | 41 | 1012.5 |
| 20260502231551 | 15 | 351 | 6.4 | 16.1 | 0.00 | 0.00 | 0.00 | 41 | 1012.5 |
| 20260502231049 | 15 | 6 | 11.3 | 12.9 | 0.00 | 0.00 | 0.00 | 41 | 1012.3 |
| 20260502230547 | 15 | 346 | 6.4 | 9.7 | 0.00 | 0.00 | 0.00 | 41 | 1011.9 |
| 20260502230045 | 16 | 22 | 9.7 | 11.3 | 0.00 | 0.00 | 0.00 | 40 | 1012.3 |
| 20260502225540 | 16 | 351 | 12.9 | 16.1 | 0.00 | 0.00 | 0.00 | 39 | 1012.2 |
| 20260502225038 | 16 | 351 | 11.3 | 14.5 | 0.00 | 0.00 | 0.00 | 39 | 1012.2 |
| 20260502224534 | 16 | 349 | 14.5 | 17.7 | 0.00 | 0.00 | 0.00 | 39 | 1012.0 |
| 20260502224031 | 16 | 22 | 12.9 | 20.9 | 0.00 | 0.00 | 0.00 | 38 | 1012.0 |
| 20260502223529 | 16 | 351 | 8.0 | 11.3 | 0.00 | 0.00 | 0.00 | 40 | 1011.9 |
| 20260502223027 | 16 | 351 | 11.3 | 20.9 | 0.00 | 0.00 | 0.00 | 39 | 1012.0 |
| 20260502222524 | 16 | 329 | 4.8 | 9.7 | 0.00 | 0.00 | 0.00 | 41 | 1011.8 |
| 20260502222020 | 17 | 331 | 9.7 | 14.5 | 0.00 | 0.00 | 0.00 | 40 | 1011.9 |
| 20260502221515 | 18 | 24 | 8.0 | 12.9 | 0.00 | 0.00 | 0.00 | 39 | 1011.7 |
| 20260502221013 | 18 | 329 | 6.4 | 9.7 | 0.00 | 0.00 | 0.00 | 46 | 1011.6 |
| 20260502220509 | 17 | 345 | 4.8 | 8.0 | 0.00 | 0.00 | 0.00 | 55 | 1011.8 |
| 20260502220006 | 17 | 227 | 3.2 | 8.0 | 0.00 | 0.00 | 0.00 | 54 | 1011.7 |
| 20260502215503 | 18 | 222 | 4.8 | 4.8 | 0.00 | 0.00 | 0.00 | 53 | 1011.7 |
| 20260502215000 | 18 | 265 | 3.2 | 4.8 | 0.00 | 0.00 | 0.00 | 54 | 1011.5 |
| 20260502214456 | 18 | 147 | 3.2 | 9.7 | 0.00 | 0.00 | 0.00 | 53 | 1011.7 |
| 20260502213954 | 18 | 322 | 1.6 | 8.0 | 0.00 | 0.00 | 0.00 | 51 | 1011.4 |
| 20260502213450 | 18 | 263 | 1.6 | 3.2 | 0.00 | 0.00 | 0.00 | 50 | 1011.4 |
| 20260502212949 | 17 | 209 | 1.6 | 4.8 | 0.00 | 0.00 | 0.00 | 51 | 1011.3 |
| 20260502212447 | 18 | 207 | 1.6 | 3.2 | 0.00 | 0.00 | 0.00 | 52 | 1011.3 |
| 20260502211944 | 18 | 218 | 3.2 | 8.0 | 0.00 | 0.00 | 0.00 | 53 | 1011.2 |
| 20260502211440 | 18 | 217 | 3.2 | 3.2 | 0.00 | 0.00 | 0.00 | 53 | 1011.3 |
| 20260502210938 | 18 | 226 | 3.2 | 4.8 | 0.00 | 0.00 | 0.00 | 52 | 1011.4 |
| 20260502210434 | 17 | 241 | 6.4 | 12.9 | 0.00 | 0.00 | 0.00 | 52 | 1011.5 |
| 20260502205931 | 17 | 236 | 6.4 | 14.5 | 0.00 | 0.00 | 0.00 | 54 | 1011.5 |
| 20260502205427 | 17 | 225 | 8.0 | 11.3 | 0.00 | 0.00 | 0.00 | 54 | 1011.5 |
| 20260502204925 | 16 | 275 | 4.8 | 9.7 | 0.00 | 0.00 | 0.00 | 58 | 1011.6 |
| 20260502204422 | 16 | 170 | 4.8 | 8.0 | 0.00 | 0.00 | 0.00 | 55 | 1011.7 |
| 20260502203920 | 16 | 186 | 3.2 | 3.2 | 0.00 | 0.00 | 0.00 | 55 | 1011.7 |
| 20260502203417 | 16 | 235 | 8.0 | 11.3 | 0.00 | 0.00 | 0.00 | 56 | 1011.6 |
| 20260502202912 | 16 | 193 | 6.4 | 8.0 | 0.00 | 0.00 | 0.00 | 57 | 1011.5 |
| 20260502202410 | 16 | 224 | 6.4 | 8.0 | 0.00 | 0.00 | 0.00 | 56 | 1011.8 |
| 20260502201908 | 16 | 213 | 6.4 | 9.7 | 0.00 | 0.00 | 0.00 | 56 | 1011.5 |
| 20260502201403 | 16 | 190 | 0.0 | 1.6 | 0.00 | 0.00 | 0.00 | 57 | 1011.7 |
| 20260502200900 | 16 | 129 | 3.2 | 4.8 | 0.00 | 0.00 | 0.00 | 55 | 1011.9 |
| 20260502200355 | 16 | 192 | 6.4 | 8.0 | 0.00 | 0.00 | 0.00 | 53 | 1011.6 |
| 20260502195854 | 16 | 216 | 8.0 | 9.7 | 0.00 | 0.00 | 0.00 | 53 | 1011.9 |
| 20260502195350 | 16 | 177 | 3.2 | 11.3 | 0.00 | 0.00 | 0.00 | 53 | 1011.7 |
| 20260502194847 | 16 | 139 | 1.6 | 8.0 | 0.00 | 0.00 | 0.00 | 53 | 1011.8 |
| 20260502194344 | 16 | 126 | 0.0 | 3.2 | 0.00 | 0.00 | 0.00 | 55 | 1011.9 |
| 20260502193840 | 16 | 156 | 6.4 | 8.0 | 0.00 | 0.00 | 0.00 | 54 | 1012.0 |
| 20260502193337 | 16 | 95 | 1.6 | 4.8 | 0.00 | 0.00 | 0.00 | 56 | 1012.2 |
| 20260502192833 | 16 | 117 | 1.6 | 9.7 | 0.00 | 0.00 | 0.00 | 55 | 1012.2 |
| 20260502192330 | 16 | 115 | 6.4 | 9.7 | 0.00 | 0.00 | 0.00 | 53 | 1012.2 |
| 20260502191827 | 16 | 142 | 6.4 | 14.5 | 0.00 | 0.00 | 0.00 | 52 | 1012.2 |
| 20260502191325 | 18 | 168 | 8.0 | 12.9 | 0.00 | 0.00 | 0.00 | 51 | 1012.4 |
| 20260502190822 | 18 | 248 | 0.0 | 9.7 | 0.00 | 0.00 | 0.00 | 51 | 1012.4 |
| 20260502190319 | 17 | 135 | 3.2 | 8.0 | 0.00 | 0.00 | 0.00 | 51 | 1012.4 |
| 20260502185815 | 17 | 189 | 1.6 | 3.2 | 0.00 | 0.00 | 0.00 | 52 | 1012.4 |
| 20260502185311 | 17 | 246 | 1.6 | 8.0 | 0.00 | 0.00 | 0.00 | 52 | 1012.5 |
| 20260502184808 | 17 | 11 | 4.8 | 9.7 | 0.00 | 0.00 | 0.00 | 55 | 1012.4 |
| 20260502184303 | 16 | 123 | 3.2 | 8.0 | 0.00 | 0.00 | 0.00 | 55 | 1012.6 |
| 20260502183800 | 16 | 101 | 4.8 | 9.7 | 0.00 | 0.00 | 0.00 | 58 | 1012.6 |
| 20260502183256 | 15 | 76 | 3.2 | 4.8 | 0.00 | 0.00 | 0.00 | 57 | 1012.7 |
| 20260502182752 | 15 | 173 | 4.8 | 9.7 | 0.00 | 0.00 | 0.00 | 58 | 1012.5 |
| 20260502182247 | 15 | 154 | 8.0 | 12.9 | 0.00 | 0.00 | 0.00 | 59 | 1012.8 |
| 20260502181744 | 15 | 198 | 4.8 | 9.7 | 0.00 | 0.00 | 0.00 | 59 | 1013.0 |
| 20260502181243 | 15 | 139 | 1.6 | 4.8 | 0.00 | 0.00 | 0.00 | 59 | 1013.3 |
| 20260502180740 | 15 | 179 | 3.2 | 8.0 | 0.00 | 0.00 | 0.00 | 59 | 1013.1 |
| 20260502180238 | 15 | 138 | 1.6 | 4.8 | 0.00 | 0.00 | 0.00 | 59 | 1012.9 |